Weather History for KASH - November, 2011

Change the Weather History Date:

Tuesday, November 1, 2011

  Actual Average (KMHT) Record (KMHT)
Temperature  
Mean Temperature 40 °F -  
Max Temperature 50 °F 55 °F - (-1)
Min Temperature 29 °F 32 °F - (-1)
Degree Days  
Heating Degree Days 26    
Moisture  
Dew Point 31 °F    
Average Humidity 81    
Maximum Humidity 96    
Minimum Humidity 54    
Precipitation  
Precipitation 0.00 in - - ()
Sea Level Pressure  
Sea Level Pressure 30.39 in    
Wind  
Wind Speed 2 mph (NNW)    
Max Wind Speed 8 mph    
Max Gust Speed -    
Visibility 9 miles    
Events      
Averages and records for this station are not official NWS values.
T = Trace of Precipitation, MM = Missing Value Source: NWS Daily Summary

Daily Weather History Graph

Daily Weather History Graph

Search for Another Location

Airport or City:

Trip Planner

Search our weather history database for the weather conditions in past years. The results will help you decide how hot, cold, wet, or windy it might be!

Date:

Astronomy

Nov. 01, 2011 Rise Set
Actual Time 7:19 AM EDT 5:38 PM EDT
Civil Twilight 6:50 AM EDT 6:08 PM EDT
Nautical Twilight 6:16 AM EDT 6:41 PM EDT
Astronomical Twilight 5:44 AM EDT 7:14 PM EDT
Moon 1:06 PM EDT (11/1) 11:16 PM EDT (11/1)
Length of Visible Light 11h 17m
Length of Day
10h 19m
Waxing Crescent, 39% of the Moon is Illuminated
Nov 1
Waxing Crescent
Nov 2
First Quarter
Nov 10
Full
Nov 18
Last Quarter
Nov 25
New

Hourly Weather History & Observations

Time (EDT) Temp. Windchill Dew Point Humidity Pressure Visibility Wind Dir Wind Speed Gust Speed Precip Events Conditions
12:51 AM 32.9 °F 28.5 °F 31.1 °F 93% 30.40 in 10.0 mi NW 4.6 mph - N/A   Clear
1:51 AM 31.1 °F - 30.0 °F 96% 30.40 in 8.0 mi Calm Calm - N/A   Clear
2:51 AM 30.0 °F - 28.0 °F 92% 30.40 in 7.0 mi Calm Calm - N/A   Clear
3:51 AM 29.1 °F - 27.1 °F 92% 30.41 in 8.0 mi Calm Calm - N/A   Clear
4:51 AM 29.1 °F - 28.0 °F 96% 30.41 in 8.0 mi Calm Calm - N/A   Clear
5:51 AM 29.1 °F 24.1 °F 28.0 °F 96% 30.41 in 8.0 mi NW 4.6 mph - N/A   Clear
7:51 AM 30.0 °F 26.5 °F 28.0 °F 92% 30.42 in 9.0 mi NW 3.5 mph - N/A   Clear
8:51 AM 32.9 °F - 30.0 °F 89% 30.40 in 9.0 mi Calm Calm - N/A   Clear
9:51 AM 36.9 °F - 32.0 °F 83% 30.41 in 10.0 mi Calm Calm - N/A   Clear
10:51 AM 41.0 °F - 32.9 °F 73% 30.40 in 10.0 mi Calm Calm - N/A   Clear
11:51 AM 45.0 °F 43.5 °F 32.9 °F 63% 30.40 in 8.0 mi NW 3.5 mph - N/A   Clear
12:51 PM 47.8 °F - 34.0 °F 59% 30.38 in 10.0 mi Calm Calm - N/A   Clear
1:51 PM 50.0 °F - 34.9 °F 56% 30.36 in 8.0 mi East 6.9 mph - N/A   Unknown
2:51 PM 48.9 °F - 32.9 °F 54% 30.36 in 10.0 mi Variable 3.5 mph - N/A   Scattered Clouds
3:51 PM 48.9 °F - 34.0 °F 56% 30.37 in 10.0 mi Variable 4.6 mph - N/A   Scattered Clouds
4:51 PM 47.8 °F - 32.9 °F 56% 30.37 in 10.0 mi East 8.1 mph - N/A   Partly Cloudy
5:51 PM 38.8 °F - 34.0 °F 83% 30.38 in 10.0 mi Calm Calm - N/A   Clear
6:51 PM 36.9 °F - 32.9 °F 86% 30.39 in 10.0 mi Calm Calm - N/A   Clear
7:51 PM 34.0 °F - 32.0 °F 92% 30.39 in 10.0 mi Calm Calm - N/A   Clear
8:51 PM 34.0 °F - 32.0 °F 92% 30.39 in 10.0 mi Calm Calm - N/A   Clear
9:51 PM 32.9 °F 28.5 °F 30.0 °F 89% 30.39 in 10.0 mi NW 4.6 mph - N/A   Clear
10:51 PM 31.1 °F - 29.1 °F 92% 30.39 in 10.0 mi Calm Calm - N/A   Clear